Lumberton, NC

9:18 PM EST on February 20, 2017 (GMT -0500)
Lumberton Municipal

Weather History for KLBT - September, 2011

Change the Weather History Date:

Saturday, September 3, 2011

  Actual Average Record
Temperature  
Mean Temperature 79 °F 76 °F  
Max Temperature 89 °F 86 °F 99 °F (2010)
Min Temperature 68 °F 66 °F 59 °F (2008)
Degree Days  
Heating Degree Days 0 0  
Month to date heating degree days 0 0  
Since 1 July heating degree days 0 0  
Cooling Degree Days 14 11  
Month to date cooling degree days 37 34  
Year to date cooling degree days 1992 1606  
Growing Degree Days 28 (Base 50)    
Moisture  
Dew Point 67 °F    
Average Humidity 73    
Maximum Humidity 93    
Minimum Humidity 53    
Precipitation  
Precipitation 0.00 in 0.17 in 0.06 in (2016)
Month to date precipitation 0.00 0.52  
Year to date precipitation 31.09 30.91  
Sea Level Pressure  
Sea Level Pressure 29.98 in    
Wind  
Wind Speed 3 mph (SE)    
Max Wind Speed 10 mph    
Max Gust Speed 14 mph    
Visibility 10 miles    
Events      
T = Trace of Precipitation, MM = Missing Value Source: NWS Daily Summary

Daily Weather History Graph

Daily Weather History Graph

Search for Another Location

Airport or City:

Trip Planner

Search our weather history database for the weather conditions in past years. The results will help you decide how hot, cold, wet, or windy it might be!

Date:

Astronomy

Sep. 03, 2011 Rise Set
Actual Time 6:50 AM EDT 7:40 PM EDT
Civil Twilight 6:24 AM EDT 8:05 PM EDT
Nautical Twilight 5:54 AM EDT 8:36 PM EDT
Astronomical Twilight 5:23 AM EDT 9:07 PM EDT
Moon 1:09 PM EDT (9/3) 11:23 PM EDT (9/3)
Length of Visible Light 13h 40m
Length of Day
12h 49m
Waxing Crescent, 38% of the Moon is Illuminated
Sep 3
Waxing Crescent
Sep 4
First Quarter
Sep 12
Full
Sep 20
Last Quarter
Sep 27
New

Hourly Weather History & Observations

Time (EDT) Temp. Heat Index Dew Point Humidity Pressure Visibility Wind Dir Wind Speed Gust Speed Precip Events Conditions
12:54 AM 73.9 °F - 66.9 °F 79% 30.03 in 10.0 mi Calm Calm - N/A   Overcast
2:54 AM 71.1 °F - 66.0 °F 84% 29.99 in 10.0 mi Calm Calm - N/A   Clear
3:54 AM 69.1 °F - 66.0 °F 90% 30.00 in 10.0 mi Calm Calm - N/A   Clear
4:54 AM 69.1 °F - 66.0 °F 90% 30.00 in 10.0 mi Calm Calm - N/A   Unknown
6:54 AM 68.0 °F - 66.0 °F 93% 30.00 in 7.0 mi Calm Calm - N/A   Partly Cloudy
7:54 AM 71.1 °F - 68.0 °F 90% 30.01 in 9.0 mi ESE 4.6 mph - N/A   Partly Cloudy
8:54 AM 73.9 °F - 68.0 °F 82% 30.00 in 10.0 mi ESE 4.6 mph - N/A   Clear
9:54 AM 78.1 °F - 68.0 °F 71% 30.01 in 10.0 mi Variable 3.5 mph - N/A   Clear
10:54 AM 82.0 °F 84.9 °F 68.0 °F 62% 30.01 in 10.0 mi East 5.8 mph - N/A   Partly Cloudy
12:54 PM 86.0 °F 90.1 °F 69.1 °F 57% 29.99 in 10.0 mi Variable 3.5 mph - N/A   Partly Cloudy
1:54 PM 88.0 °F 92.1 °F 69.1 °F 53% 29.98 in 10.0 mi SE 8.1 mph - N/A   Partly Cloudy
2:54 PM 88.0 °F 92.1 °F 69.1 °F 53% 29.97 in 10.0 mi ESE 6.9 mph - N/A   Partly Cloudy
3:54 PM 88.0 °F 91.4 °F 68.0 °F 51% 29.96 in 10.0 mi SE 3.5 mph - N/A   Clear
4:54 PM 87.1 °F 90.6 °F 68.0 °F 53% 29.94 in 10.0 mi Variable 3.5 mph - N/A   Clear
5:54 PM 86.0 °F 89.4 °F 68.0 °F 55% 29.94 in 10.0 mi SE 5.8 mph - N/A   Clear
6:54 PM 82.0 °F 85.5 °F 69.1 °F 65% 29.94 in 10.0 mi SSE 9.2 mph - N/A   Mostly Cloudy
8:54 PM 75.0 °F - 64.9 °F 71% 29.96 in 10.0 mi South 3.5 mph - N/A   Clear
9:54 PM 73.9 °F - 64.9 °F 73% 29.98 in 10.0 mi Calm Calm - N/A   Clear
10:54 PM 71.1 °F - 66.0 °F 84% 29.98 in 10.0 mi Calm Calm - N/A   Clear
11:54 PM 69.1 °F - 66.0 °F 90% 29.98 in 10.0 mi Calm Calm - N/A   Clear